EW2825 Weather Reports


time (UTC)temp
F
wind
direction
speed
knots
gust
knots
rain 1hr
in
rain 24hr
in
rain mn
in
humidity
%
barometer
mb
20260507171605 54 89 1.7 0.0 0.00 0.00 0.00 50 1002.3
20260507170054 53 109 0.9 0.0 0.00 0.00 0.00 52 1002.4
20260507164552 54 5 1.7 0.0 0.00 0.00 0.00 53 1002.6
20260507163051 53 299 0.9 0.0 0.00 0.00 0.00 58 1002.9
20260507161545 52 63 0.9 0.0 0.00 0.00 0.00 70 1003.4
20260507160051 51 62 1.7 0.0 0.00 0.00 0.00 66 1003.3
20260507154543 51 305 1.7 0.0 0.00 0.00 0.00 68 1003.3
20260507153045 51 317 0.9 0.0 0.00 0.00 0.00 68 1003.2
20260507151543 51 34 0.9 0.0 0.00 0.00 0.00 68 1003.3
20260507150041 51 51 0.9 0.0 0.00 0.00 0.00 68 1003.3
20260507144542 51 126 1.7 0.0 0.00 0.00 0.00 69 1003.2
20260507143043 50 315 1.7 0.0 0.00 0.00 0.00 68 1003.1
20260507141543 50 161 0.0 0.0 0.00 0.00 0.00 68 1003.1
20260507140043 51 149 0.9 0.0 0.00 0.00 0.00 68 1003.0
20260507134538 51 94 0.9 0.0 0.00 0.00 0.00 67 1003.0
20260507133035 50 98 0.9 0.0 0.00 0.00 0.00 73 1003.2
20260507131535 50 51 0.9 0.0 0.00 0.00 0.00 72 1003.5
20260507130029 48 63 1.7 0.0 0.00 0.00 0.00 74 1003.8
20260507124545 48 5 0.9 0.0 0.00 0.00 0.00 76 1003.5
20260507123029 48 191 0.9 0.0 0.00 0.00 0.00 76 1003.7
20260507121526 47 45 0.0 0.0 0.00 0.00 0.00 80 1003.8
20260507120025 45 49 0.9 0.0 0.00 0.00 0.00 85 1003.9
20260507114528 43 222 0.0 0.0 0.00 0.00 0.00 91 1003.8
20260507113023 42 222 0.0 0.0 0.00 0.00 0.00 93 1003.8
20260507111523 41 302 0.0 0.0 0.00 0.00 0.00 94 1004.0
20260507110029 41 302 0.0 0.0 0.00 0.00 0.00 95 1004.1
20260507104524 41 302 0.9 0.0 0.00 0.00 0.00 96 1003.9
20260507103020 41 302 0.0 0.0 0.00 0.00 0.00 96 1003.9
20260507101519 41 302 0.0 0.0 0.00 0.00 0.00 96 1004.0
20260507100023 41 302 0.0 0.0 0.00 0.00 0.00 95 1003.8
20260507094517 41 302 0.0 0.0 0.00 0.00 0.00 95 1003.8
20260507093023 41 302 0.0 0.0 0.00 0.00 0.00 95 1003.7
20260507091518 42 302 0.0 0.0 0.00 0.00 0.00 94 1003.7
20260507090011 42 302 0.0 0.0 0.00 0.00 0.00 92 1003.6
20260507084510 43 302 0.0 0.0 0.00 0.00 0.00 91 1003.6
20260507083009 43 257 0.9 0.0 0.00 0.00 0.00 89 1003.5
20260507081506 43 294 0.0 0.0 0.00 0.00 0.00 90 1002.9
20260507080004 44 297 0.9 0.0 0.00 0.00 0.00 90 1002.8
20260507074502 44 313 0.9 0.0 0.00 0.00 0.00 92 1002.8
20260507073058 44 286 0.0 0.0 0.00 0.00 0.00 94 1002.8
20260507071557 44 286 0.0 0.0 0.00 0.00 0.00 93 1003.1
20260507070114 44 286 0.9 0.0 0.00 0.00 0.00 91 1003.2
20260507064604 44 22 0.9 0.0 0.00 0.00 0.00 92 1003.0
20260507063059 44 13 0.9 0.0 0.00 0.00 0.00 94 1002.9
20260507061552 44 301 0.9 0.0 0.00 0.00 0.00 94 1002.6
20260507060050 45 325 0.9 0.0 0.00 0.00 0.00 95 1002.7
20260507054552 45 305 0.0 0.0 0.00 0.00 0.00 95 1002.7
20260507053046 45 259 0.9 0.0 0.00 0.00 0.00 96 1002.6
20260507051544 46 269 0.9 0.0 0.00 0.00 0.00 97 1002.3
20260507050043 45 269 0.0 0.0 0.00 0.00 0.00 97 1002.1
20260507044544 46 269 0.9 0.0 0.00 0.00 0.00 96 1002.0
20260507043041 46 330 0.9 0.0 0.00 0.00 0.00 96 1002.3
20260507041537 46 319 0.9 0.0 0.00 0.00 0.00 96 1002.5
20260507040038 46 290 0.9 0.0 0.00 0.00 0.00 96 1002.6
20260507034538 47 329 0.9 0.0 0.00 0.00 0.00 95 1002.5
20260507033033 47 300 1.7 0.0 0.00 0.00 0.00 96 1002.5
20260507031530 47 355 1.7 0.0 0.00 0.00 0.00 96 1002.5
20260507030026 48 327 0.9 0.0 0.00 0.00 0.34 98 1002.0
20260507024526 49 187 0.9 0.0 0.00 0.00 0.34 98 1001.9
20260507023024 51 322 0.9 0.0 0.00 0.00 0.33 99 1001.5
20260507021519 52 273 0.9 0.0 0.00 0.00 0.33 99 1001.5
20260507020027 52 323 0.9 0.0 0.00 0.00 0.33 99 1001.2
20260507014514 53 265 0.0 0.0 0.00 0.00 0.32 100 1001.2
20260507013019 54 265 0.0 0.0 0.00 0.00 0.32 100 1000.8
20260507011512 54 265 0.0 0.0 0.00 0.00 0.32 100 1001.1
20260507010011 54 265 0.0 0.0 0.00 0.00 0.32 99 1000.9
20260507004510 54 264 0.9 0.0 0.00 0.00 0.32 99 1000.7
20260507003011 54 298 0.9 0.0 0.00 0.00 0.32 99 1000.6
20260507001509 55 278 0.0 0.0 0.00 0.00 0.32 99 1000.3
20260507000009 56 48 0.0 0.0 0.00 0.00 0.32 99 1000.2
20260506234515 57 48 0.0 0.0 0.00 0.00 0.32 99 1000.0
20260506233009 57 48 0.0 0.0 0.00 0.00 0.32 99 999.8
20260506231507 59 289 0.0 0.0 0.00 0.00 0.32 99 999.7
20260506230007 59 119 0.0 0.0 0.00 0.00 0.26 99 999.3
20260506224508 60 119 0.0 0.0 0.00 0.00 0.21 99 999.4
20260506223005 60 181 0.0 0.0 0.00 0.00 0.21 99 999.5
20260506221504 60 181 0.0 0.0 0.00 0.00 0.20 99 999.7
20260506220010 60 229 0.0 0.0 0.00 0.00 0.17 99 999.7
20260506214504 60 281 0.0 0.0 0.00 0.00 0.17 99 1000.0
20260506213003 61 316 0.0 0.0 0.00 0.00 0.16 99 1000.1
20260506211501 61 309 0.0 0.0 0.00 0.00 0.16 99 1000.2
20260506210000 60 293 0.9 0.0 0.00 0.00 0.16 98 1000.4
20260506204601 60 295 0.9 0.0 0.00 0.00 0.16 98 1000.4
20260506203100 60 307 0.9 0.0 0.00 0.00 0.16 98 1000.4
20260506201559 60 343 0.9 0.0 0.00 0.00 0.15 98 1000.5
20260506200058 60 304 1.7 0.0 0.00 0.00 0.15 98 1000.5
20260506194558 60 321 1.7 0.0 0.00 0.00 0.15 98 1000.6
20260506193057 59 164 1.7 0.0 0.00 0.00 0.15 98 1000.8
20260506191556 60 289 1.7 0.0 0.00 0.00 0.14 98 1001.1
20260506190058 60 57 0.9 0.0 0.00 0.00 0.13 98 1001.1
20260506184604 60 294 0.9 0.0 0.00 0.00 0.11 99 1001.1
20260506183054 60 306 0.0 0.0 0.00 0.00 0.09 99 1001.3
20260506181553 60 314 0.9 0.0 0.00 0.00 0.07 98 1001.6
20260506180054 60 355 0.0 0.0 0.00 0.00 0.06 98 1001.9
20260506174552 60 88 0.0 0.0 0.00 0.00 0.04 97 1002.5
20260506173105 60 88 0.0 0.0 0.00 0.00 0.03 95 1002.3